Georgetown, DE

4:28 PM EDT on September 25, 2016 (GMT -0400)
Sussex County

Weather History for KGED - December, 2012

Change the Weather History Date:

Sunday, December 9, 2012

  Actual Average Record
Temperature  
Mean Temperature 51 °F 41 °F  
Max Temperature 53 °F 50 °F 71 °F (1978)
Min Temperature 49 °F 32 °F 10 °F (1976)
Degree Days  
Heating Degree Days 14 24  
Month to date heating degree days 135 204  
Since 1 July heating degree days 956 988  
Cooling Degree Days 0 0  
Month to date cooling degree days 0 0  
Year to date cooling degree days 1616 1196  
Moisture  
Dew Point 49 °F    
Average Humidity 95    
Maximum Humidity 100    
Minimum Humidity 89    
Precipitation  
Precipitation 0.02 in 0.11 in 1.93 in (2009)
Month to date precipitation 0.55 1.05  
Year to date precipitation 33.56 41.53  
Sea Level Pressure  
Sea Level Pressure 30.12 in    
Wind  
Wind Speed 5 mph (ENE)    
Max Wind Speed 17 mph    
Max Gust Speed 23 mph    
Visibility 1 miles    
Events Fog    
T = Trace of Precipitation, MM = Missing Value Source: NWS Daily Summary

Daily Weather History Graph

Daily Weather History Graph

Search for Another Location

Airport or City:

Trip Planner

Search our weather history database for the weather conditions in past years. The results will help you decide how hot, cold, wet, or windy it might be!

Date:

Astronomy

Dec. 09, 2012 Rise Set
Actual Time 7:08 AM EST 4:39 PM EST
Civil Twilight 6:38 AM EST 5:09 PM EST
Nautical Twilight 6:05 AM EST 5:42 PM EST
Astronomical Twilight 5:32 AM EST 6:15 PM EST
Moon 2:40 AM EST (12/9) 1:43 PM EST (12/9)
Length of Visible Light 10h 31m
Length of Day
9h 31m
Waning Crescent, 19% of the Moon is Illuminated
Dec 9
Waning Crescent
Dec 13
New
Dec 20
First Quarter
Dec 28
Full
Jan 4
Last Quarter

Hourly Weather History & Observations

Time (EST) Temp. Dew Point Humidity Pressure Visibility Wind Dir Wind Speed Gust Speed Precip Events Conditions
12:54 AM 50.0 °F 48.9 °F 96% 30.04 in 0.2 mi Calm Calm - N/A Fog Fog
1:54 AM 50.0 °F 48.9 °F 96% 30.06 in 0.2 mi ENE 3.5 mph - N/A Fog Fog
2:54 AM 50.0 °F 48.9 °F 96% 30.07 in 0.2 mi Calm Calm - N/A Fog Fog
3:54 AM 50.0 °F 48.9 °F 96% 30.09 in 0.5 mi Calm Calm - N/A Fog Fog
4:54 AM 50.0 °F 48.9 °F 96% 30.09 in 0.2 mi Calm Calm - N/A Fog Fog
5:54 AM 48.9 °F 48.0 °F 97% 30.10 in 0.2 mi ENE 4.6 mph - N/A Fog Fog
6:54 AM 48.9 °F 48.0 °F 97% 30.12 in 0.2 mi NNE 3.5 mph - N/A Fog Fog
7:54 AM 48.9 °F 48.0 °F 97% 30.14 in 0.5 mi NNE 4.6 mph - N/A Fog Fog
8:45 AM 50.0 °F 48.2 °F 94% 30.16 in 1.2 mi ENE 6.9 mph - N/A   Overcast
8:54 AM 50.0 °F 48.9 °F 96% 30.19 in 1.5 mi North 5.8 mph - N/A   Overcast
9:05 AM 50.0 °F 48.2 °F 94% 30.19 in 2.0 mi NNE 5.8 mph - N/A   Overcast
9:43 AM 50.0 °F 48.2 °F 94% 30.19 in 3.0 mi ENE 5.8 mph - N/A   Overcast
9:54 AM 51.1 °F 48.9 °F 92% 30.20 in 3.0 mi ENE 8.1 mph - N/A   Overcast
10:44 AM 50.0 °F 48.2 °F 94% 30.18 in 2.5 mi ENE 8.1 mph - N/A   Overcast
10:54 AM 50.0 °F 48.9 °F 96% 30.18 in 2.5 mi ENE 11.5 mph - N/A   Overcast
11:02 AM 50.0 °F 48.2 °F 94% 30.18 in 3.0 mi ENE 11.5 mph - N/A   Overcast
11:09 AM 50.0 °F 48.2 °F 94% 30.18 in 3.0 mi ENE 9.2 mph - N/A   Overcast
11:39 AM 51.8 °F 48.2 °F 88% 30.16 in 3.0 mi ENE 15.0 mph 20.7 mph N/A   Overcast
11:54 AM 51.1 °F 48.0 °F 89% 30.15 in 3.0 mi ENE 15.0 mph 23.0 mph N/A   Overcast
12:14 PM 51.8 °F 48.2 °F 88% 30.15 in 2.0 mi ENE 15.0 mph 20.7 mph N/A   Overcast
12:28 PM 51.8 °F 48.2 °F 88% 30.14 in 1.8 mi East 11.5 mph - N/A   Overcast
12:54 PM 51.1 °F 48.9 °F 92% 30.14 in 1.2 mi East 11.5 mph - N/A   Overcast
1:14 PM 51.8 °F 48.2 °F 88% 30.13 in 1.0 mi East 11.5 mph - N/A   Overcast
1:54 PM 52.0 °F 50.0 °F 93% 30.12 in 1.0 mi East 10.4 mph - N/A   Overcast
2:20 PM 51.8 °F 50.0 °F 94% 30.12 in 0.8 mi East 9.2 mph - N/A   Overcast
2:31 PM 51.8 °F 50.0 °F 94% 30.12 in 1.0 mi East 10.4 mph - N/A   Overcast
2:54 PM 52.0 °F 51.1 °F 97% 30.12 in 1.0 mi East 5.8 mph - N/A   Overcast
3:28 PM 53.6 °F 51.8 °F 94% 30.13 in 0.8 mi East 5.8 mph - N/A   Overcast
3:54 PM 52.0 °F 51.1 °F 97% 30.13 in 0.5 mi NE 4.6 mph - N/A Fog Fog
4:35 PM 51.8 °F 51.8 °F 100% 30.12 in 1.2 mi ENE 4.6 mph - N/A   Overcast
4:54 PM 52.0 °F 51.1 °F 97% 30.12 in 1.5 mi ENE 4.6 mph - N/A   Overcast
5:54 PM 51.1 °F 51.1 °F 100% 30.12 in 1.8 mi NE 5.8 mph - N/A   Overcast
6:41 PM 51.8 °F - N/A% 30.11 in 1.0 mi East 4.6 mph - N/A   Overcast
6:54 PM 52.0 °F - N/A% 30.11 in 0.8 mi East 4.6 mph - N/A   Overcast
7:54 PM 52.0 °F - N/A% 30.09 in 0.2 mi ESE 3.5 mph - N/A Fog Fog
8:54 PM 52.0 °F - N/A% 30.07 in 0.2 mi Calm Calm - N/A Fog Fog
9:54 PM 52.0 °F 51.1 °F 97% 30.04 in 0.5 mi Calm Calm - N/A Fog Fog
10:54 PM 52.0 °F 50.0 °F 93% 30.03 in 0.2 mi Calm Calm - N/A Fog Fog
11:54 PM 52.0 °F 50.0 °F 93% 30.00 in 0.5 mi SSE 3.5 mph - N/A Fog Fog